Wetterdaten: Woche 31.10.11 - 06.11.11 (KW44)
Datum Zeit Temperatur Luftfeuchte Luftdruck Niederschlag Windrichtung Sonnenschein Solar Wind
31.10.2011 00:00 5,8 C 96 % 1021,2 hPa 0,2 l/m N 0,00 h 0 W/m 3,7 km/h (1 Bft)
31.10.2011 01:00 5,8 C 97 % 1021,1 hPa 0,0 l/m N 0,00 h 0 W/m 3,5 km/h (1 Bft)
31.10.2011 02:00 5,8 C 97 % 1020,9 hPa 0,0 l/m N 0,00 h 0 W/m 4,1 km/h (1 Bft)
31.10.2011 03:00 5,7 C 97 % 1020,4 hPa 0,0 l/m N 0,00 h 0 W/m 4,8 km/h (1 Bft)
31.10.2011 04:00 5,4 C 97 % 1020,4 hPa 0,0 l/m N 0,00 h 0 W/m 4,8 km/h (1 Bft)
31.10.2011 05:00 5,2 C 98 % 1020,4 hPa 0,0 l/m N 0,00 h 0 W/m 5,3 km/h (1 Bft)
31.10.2011 06:00 5,0 C 98 % 1020,1 hPa 0,0 l/m N 0,00 h 0 W/m 4,9 km/h (1 Bft)
31.10.2011 07:00 4,7 C 98 % 1020,2 hPa 0,0 l/m N-NO 0,00 h 12 W/m 4,1 km/h (1 Bft)
31.10.2011 08:00 5,0 C 98 % 1020,1 hPa 0,0 l/m N-NO 0,00 h 35 W/m 3,5 km/h (1 Bft)
31.10.2011 09:00 5,6 C 99 % 1019,9 hPa 0,0 l/m N-NO 0,00 h 57 W/m 4,8 km/h (1 Bft)
31.10.2011 10:00 6,1 C 99 % 1019,7 hPa 0,0 l/m N-NO 0,00 h 69 W/m 4,7 km/h (1 Bft)
31.10.2011 11:00 6,3 C 99 % 1019,6 hPa 0,0 l/m N-NO 0,00 h 71 W/m 5,5 km/h (1 Bft)
31.10.2011 12:00 6,5 C 98 % 1019,3 hPa 0,0 l/m N-NO 0,00 h 59 W/m 3,5 km/h (1 Bft)
31.10.2011 13:00 6,6 C 98 % 1019,1 hPa 0,0 l/m N-NO 0,00 h 45 W/m 3,2 km/h (1 Bft)
31.10.2011 14:00 6,8 C 97 % 1018,8 hPa 0,0 l/m N-NO 0,00 h 37 W/m 2,9 km/h (1 Bft)
31.10.2011 15:00 6,9 C 97 % 1018,6 hPa 0,0 l/m N 0,00 h 22 W/m 1,9 km/h (1 Bft)
31.10.2011 16:00 6,9 C 97 % 1018,4 hPa 0,0 l/m N 0,00 h 9 W/m 0,7 km/h (0 Bft)
31.10.2011 17:00 6,9 C 97 % 1018,3 hPa 0,0 l/m N 0,00 h 0 W/m 1,5 km/h (1 Bft)
31.10.2011 18:00 6,8 C 97 % 1018,4 hPa 0,0 l/m N-NO 0,00 h 0 W/m 2,3 km/h (1 Bft)
31.10.2011 19:00 6,8 C 97 % 1018,4 hPa 0,0 l/m N 0,00 h 0 W/m 2,7 km/h (1 Bft)
31.10.2011 20:00 6,5 C 97 % 1018,6 hPa 0,0 l/m N-NO 0,00 h 0 W/m 3,7 km/h (1 Bft)
31.10.2011 21:00 6,2 C 97 % 1018,7 hPa 0,0 l/m N-NO 0,00 h 0 W/m 3,1 km/h (1 Bft)
31.10.2011 22:00 6,2 C 98 % 1018,8 hPa 0,0 l/m SW 0,00 h 0 W/m 7,6 km/h (2 Bft)
31.10.2011 23:00 6,1 C 98 % 1018,8 hPa 0,0 l/m W-SW 0,00 h 0 W/m 7,8 km/h (2 Bft)
01.11.2011 00:00 6,3 C 98 % 1018,7 hPa 0,0 l/m W-SW 0,00 h 0 W/m 8,0 km/h (2 Bft)
01.11.2011 01:00 6,5 C 98 % 1018,6 hPa 0,0 l/m W-SW 0,00 h 0 W/m 9,0 km/h (2 Bft)
01.11.2011 02:00 6,6 C 98 % 1018,5 hPa 0,0 l/m W-SW 0,00 h 0 W/m 6,5 km/h (2 Bft)
01.11.2011 03:00 6,7 C 98 % 1018,2 hPa 0,0 l/m SW 0,00 h 0 W/m 9,2 km/h (2 Bft)
01.11.2011 04:00 6,6 C 99 % 1018,1 hPa 0,0 l/m SW 0,00 h 0 W/m 10,6 km/h (2 Bft)
01.11.2011 05:00 6,6 C 99 % 1018,0 hPa 0,0 l/m W-SW 0,00 h 0 W/m 4,1 km/h (1 Bft)
01.11.2011 06:00 6,7 C 99 % 1017,8 hPa 0,0 l/m W-SW 0,00 h 0 W/m 2,7 km/h (1 Bft)
01.11.2011 07:00 6,8 C 99 % 1017,9 hPa 0,2 l/m W-SW 0,00 h 10 W/m 2,9 km/h (1 Bft)
01.11.2011 08:00 6,9 C 99 % 1018,2 hPa 0,0 l/m N 0,00 h 26 W/m 2,8 km/h (1 Bft)
01.11.2011 09:00 7,1 C 99 % 1018,2 hPa 0,0 l/m N 0,00 h 57 W/m 0,9 km/h (0 Bft)
01.11.2011 10:00 7,4 C 99 % 1018,0 hPa 0,0 l/m N 0,00 h 106 W/m 1,9 km/h (1 Bft)
01.11.2011 11:00 8,4 C 98 % 1017,7 hPa 0,0 l/m W-SW 0,00 h 123 W/m 2,8 km/h (1 Bft)
01.11.2011 12:00 9,4 C 96 % 1017,1 hPa 0,0 l/m W-SW 0,17 h 173 W/m 3,7 km/h (1 Bft)
01.11.2011 13:00 9,8 C 95 % 1016,8 hPa 0,0 l/m W-SW 0,17 h 153 W/m 5,6 km/h (1 Bft)
01.11.2011 14:00 10,0 C 95 % 1016,6 hPa 0,0 l/m NW 0,42 h 170 W/m 6,1 km/h (2 Bft)
01.11.2011 15:00 10,0 C 96 % 1016,6 hPa 0,0 l/m N-NW 0,25 h 108 W/m 5,7 km/h (1 Bft)
01.11.2011 16:00 9,7 C 95 % 1016,6 hPa 0,0 l/m N-NW 0,00 h 27 W/m 4,4 km/h (1 Bft)
01.11.2011 17:00 9,0 C 96 % 1016,9 hPa 0,0 l/m N-NW 0,00 h 0 W/m 5,2 km/h (1 Bft)
01.11.2011 18:00 8,5 C 97 % 1017,5 hPa 0,0 l/m N 0,00 h 0 W/m 1,9 km/h (1 Bft)
01.11.2011 19:00 8,3 C 97 % 1017,6 hPa 0,0 l/m N-NW 0,00 h 0 W/m 1,2 km/h (1 Bft)
01.11.2011 20:00 8,5 C 98 % 1017,8 hPa 0,0 l/m W 0,00 h 0 W/m 4,9 km/h (1 Bft)
01.11.2011 21:00 8,3 C 98 % 1017,8 hPa 0,0 l/m W 0,00 h 0 W/m 5,5 km/h (1 Bft)
01.11.2011 22:00 7,8 C 98 % 1017,9 hPa 0,0 l/m SW 0,00 h 0 W/m 6,8 km/h (2 Bft)
01.11.2011 23:00 7,3 C 98 % 1018,0 hPa 0,0 l/m SW 0,00 h 0 W/m 3,5 km/h (1 Bft)
02.11.2011 00:00 6,9 C 98 % 1018,1 hPa 0,0 l/m SW 0,00 h 0 W/m 4,1 km/h (1 Bft)
02.11.2011 01:00 6,4 C 98 % 1018,3 hPa 0,0 l/m SW 0,00 h 0 W/m 3,9 km/h (1 Bft)
02.11.2011 02:00 6,1 C 98 % 1018,1 hPa 0,0 l/m SW 0,00 h 0 W/m 3,6 km/h (1 Bft)
02.11.2011 03:00 5,8 C 98 % 1017,7 hPa 0,0 l/m SW 0,00 h 0 W/m 3,9 km/h (1 Bft)
02.11.2011 04:00 5,7 C 99 % 1017,6 hPa 0,0 l/m N 0,00 h 0 W/m 0,9 km/h (0 Bft)
02.11.2011 05:00 6,0 C 99 % 1017,5 hPa 0,0 l/m SW 0,00 h 0 W/m 0,5 km/h (0 Bft)
02.11.2011 06:00 6,2 C 99 % 1017,5 hPa 0,2 l/m SW 0,00 h 0 W/m 3,3 km/h (1 Bft)
02.11.2011 07:00 6,1 C 99 % 1017,5 hPa 0,0 l/m SW 0,00 h 10 W/m 1,7 km/h (1 Bft)
02.11.2011 08:00 6,2 C 99 % 1017,5 hPa 0,0 l/m N 0,00 h 28 W/m 1,7 km/h (1 Bft)
02.11.2011 09:00 6,6 C 99 % 1017,3 hPa 0,0 l/m N 0,00 h 55 W/m 1,5 km/h (1 Bft)
02.11.2011 10:00 7,0 C 99 % 1016,9 hPa 0,0 l/m W-SW 0,00 h 119 W/m 2,8 km/h (1 Bft)
02.11.2011 11:00 8,2 C 99 % 1016,2 hPa 0,0 l/m SW 0,58 h 355 W/m 4,5 km/h (1 Bft)
02.11.2011 12:00 10,3 C 90 % 1015,1 hPa 0,0 l/m N-NO 1,00 h 442 W/m 5,5 km/h (1 Bft)
02.11.2011 13:00 12,1 C 85 % 1014,3 hPa 0,0 l/m O-NO 1,00 h 402 W/m 7,3 km/h (2 Bft)
02.11.2011 14:00 12,4 C 85 % 1013,7 hPa 0,0 l/m NO 1,00 h 305 W/m 8,7 km/h (2 Bft)
02.11.2011 15:00 10,1 C 90 % 1013,4 hPa 0,0 l/m N-NO 0,50 h 129 W/m 11,2 km/h (2 Bft)
02.11.2011 16:00 8,9 C 95 % 1013,2 hPa 0,0 l/m N-NO 0,00 h 17 W/m 7,8 km/h (2 Bft)
02.11.2011 17:00 8,5 C 95 % 1013,1 hPa 0,0 l/m N-NO 0,00 h 0 W/m 7,6 km/h (2 Bft)
02.11.2011 18:00 8,1 C 96 % 1013,0 hPa 0,0 l/m N 0,00 h 0 W/m 8,3 km/h (2 Bft)
02.11.2011 19:00 7,8 C 97 % 1012,9 hPa 0,0 l/m N-NO 0,00 h 0 W/m 8,7 km/h (2 Bft)
02.11.2011 20:00 7,6 C 97 % 1012,7 hPa 0,0 l/m N-NO 0,00 h 0 W/m 5,9 km/h (2 Bft)
02.11.2011 21:00 7,2 C 98 % 1012,5 hPa 0,0 l/m NO 0,00 h 0 W/m 6,0 km/h (2 Bft)
02.11.2011 22:00 7,0 C 98 % 1012,0 hPa 0,0 l/m N-NO 0,00 h 0 W/m 6,0 km/h (2 Bft)
02.11.2011 23:00 6,8 C 98 % 1011,5 hPa 0,0 l/m NO 0,00 h 0 W/m 6,5 km/h (2 Bft)
03.11.2011 00:00 6,6 C 98 % 1011,0 hPa 0,0 l/m N-NO 0,00 h 0 W/m 8,0 km/h (2 Bft)
03.11.2011 01:00 6,2 C 98 % 1010,8 hPa 0,0 l/m NO 0,00 h 0 W/m 5,6 km/h (1 Bft)
03.11.2011 02:00 5,9 C 98 % 1010,7 hPa 0,0 l/m NO 0,00 h 0 W/m 5,9 km/h (2 Bft)
03.11.2011 03:00 5,7 C 98 % 1010,5 hPa 0,0 l/m NO 0,00 h 0 W/m 4,9 km/h (1 Bft)
03.11.2011 04:00 5,2 C 99 % 1010,3 hPa 0,0 l/m NO 0,00 h 0 W/m 5,5 km/h (1 Bft)
03.11.2011 05:00 4,9 C 99 % 1010,2 hPa 0,0 l/m NO 0,00 h 0 W/m 5,9 km/h (2 Bft)
03.11.2011 06:00 4,8 C 99 % 1009,7 hPa 0,0 l/m NO 0,00 h 0 W/m 4,9 km/h (1 Bft)
03.11.2011 07:00 4,6 C 99 % 1010,0 hPa 0,0 l/m N-NO 0,00 h 15 W/m 5,3 km/h (1 Bft)
03.11.2011 08:00 4,6 C 99 % 1010,1 hPa 0,0 l/m O 0,00 h 53 W/m 4,9 km/h (1 Bft)
03.11.2011 09:00 5,0 C 99 % 1009,5 hPa 0,0 l/m N 0,08 h 126 W/m 6,7 km/h (2 Bft)
03.11.2011 10:00 6,4 C 97 % 1009,3 hPa 0,0 l/m N-NO 0,83 h 326 W/m 11,0 km/h (2 Bft)
03.11.2011 11:00 7,7 C 92 % 1008,9 hPa 0,0 l/m N-NO 1,00 h 429 W/m 10,2 km/h (2 Bft)
03.11.2011 12:00 8,3 C 90 % 1008,4 hPa 0,0 l/m N-NO 0,42 h 241 W/m 7,8 km/h (2 Bft)
03.11.2011 13:00 9,1 C 89 % 1008,3 hPa 0,0 l/m N 0,33 h 222 W/m 7,8 km/h (2 Bft)
03.11.2011 14:00 8,8 C 90 % 1007,9 hPa 0,0 l/m NO 0,17 h 144 W/m 7,5 km/h (2 Bft)
03.11.2011 15:00 9,1 C 90 % 1007,7 hPa 0,0 l/m NO 0,00 h 60 W/m 3,3 km/h (1 Bft)
03.11.2011 16:00 9,0 C 90 % 1007,1 hPa 0,0 l/m N-NO 0,00 h 14 W/m 6,3 km/h (2 Bft)
03.11.2011 17:00 8,4 C 92 % 1006,8 hPa 0,0 l/m N-NO 0,00 h 0 W/m 5,2 km/h (1 Bft)
03.11.2011 18:00 7,5 C 93 % 1006,6 hPa 0,0 l/m N-NO 0,00 h 0 W/m 4,0 km/h (1 Bft)
03.11.2011 19:00 6,6 C 94 % 1006,2 hPa 0,0 l/m N-NO 0,00 h 0 W/m 5,1 km/h (1 Bft)
03.11.2011 20:00 6,1 C 96 % 1005,4 hPa 0,0 l/m N 0,00 h 0 W/m 6,5 km/h (2 Bft)
03.11.2011 21:00 6,1 C 97 % 1005,4 hPa 0,0 l/m N 0,00 h 0 W/m 7,2 km/h (2 Bft)
03.11.2011 22:00 6,0 C 97 % 1004,9 hPa 0,0 l/m NO 0,00 h 0 W/m 7,2 km/h (2 Bft)
03.11.2011 23:00 5,8 C 98 % 1004,4 hPa 0,0 l/m N-NO 0,00 h 0 W/m 8,2 km/h (2 Bft)
04.11.2011 00:00 5,7 C 98 % 1004,2 hPa 0,0 l/m NO 0,00 h 0 W/m 7,8 km/h (2 Bft)
04.11.2011 01:00 5,4 C 98 % 1004,5 hPa 0,0 l/m N-NO 0,00 h 0 W/m 7,5 km/h (2 Bft)
04.11.2011 02:00 5,1 C 98 % 1005,1 hPa 0,0 l/m N-NO 0,00 h 0 W/m 5,2 km/h (1 Bft)
04.11.2011 03:00 5,1 C 98 % 1004,9 hPa 0,0 l/m N-NO 0,00 h 0 W/m 4,8 km/h (1 Bft)
04.11.2011 04:00 5,2 C 98 % 1004,7 hPa 0,0 l/m N-NO 0,00 h 0 W/m 5,7 km/h (1 Bft)
04.11.2011 05:00 5,3 C 99 % 1004,8 hPa 0,0 l/m N 0,00 h 0 W/m 6,4 km/h (2 Bft)
04.11.2011 06:00 5,1 C 99 % 1004,9 hPa 0,2 l/m N-NO 0,00 h 0 W/m 6,0 km/h (2 Bft)
04.11.2011 07:00 5,1 C 99 % 1005,4 hPa 0,0 l/m N-NO 0,00 h 11 W/m 6,7 km/h (2 Bft)
04.11.2011 08:00 5,1 C 99 % 1006,1 hPa 0,0 l/m N-NO 0,00 h 38 W/m 8,0 km/h (2 Bft)
04.11.2011 09:00 5,5 C 99 % 1006,4 hPa 0,0 l/m N-NO 0,00 h 78 W/m 7,1 km/h (2 Bft)
04.11.2011 10:00 6,1 C 99 % 1006,8 hPa 0,0 l/m N-NO 0,00 h 127 W/m 8,6 km/h (2 Bft)
04.11.2011 11:00 6,5 C 97 % 1007,1 hPa 0,0 l/m N-NO 0,00 h 74 W/m 11,6 km/h (2 Bft)
04.11.2011 12:00 7,5 C 95 % 1006,6 hPa 0,0 l/m O-NO 0,83 h 377 W/m 9,8 km/h (2 Bft)
04.11.2011 13:00 9,8 C 88 % 1005,8 hPa 0,0 l/m N-NO 0,83 h 367 W/m 10,9 km/h (2 Bft)
04.11.2011 14:00 10,0 C 87 % 1005,4 hPa 0,0 l/m N-NO 0,00 h 64 W/m 9,9 km/h (2 Bft)
04.11.2011 15:00 9,2 C 90 % 1005,3 hPa 0,0 l/m NO 0,00 h 38 W/m 11,4 km/h (2 Bft)
04.11.2011 16:00 8,7 C 90 % 1005,2 hPa 0,0 l/m NO 0,00 h 12 W/m 12,8 km/h (3 Bft)
04.11.2011 17:00 7,8 C 92 % 1005,5 hPa 0,0 l/m N-NO 0,00 h 0 W/m 8,4 km/h (2 Bft)
04.11.2011 18:00 7,4 C 94 % 1005,8 hPa 0,0 l/m N-NO 0,00 h 0 W/m 8,7 km/h (2 Bft)
04.11.2011 19:00 7,3 C 95 % 1005,6 hPa 0,0 l/m NO 0,00 h 0 W/m 7,2 km/h (2 Bft)
04.11.2011 20:00 7,3 C 96 % 1005,4 hPa 0,0 l/m NO 0,00 h 0 W/m 5,2 km/h (1 Bft)
04.11.2011 21:00 7,1 C 96 % 1005,3 hPa 0,0 l/m N 0,00 h 0 W/m 9,1 km/h (2 Bft)
04.11.2011 22:00 6,8 C 97 % 1005,4 hPa 0,0 l/m N 0,00 h 0 W/m 7,6 km/h (2 Bft)
04.11.2011 23:00 6,8 C 97 % 1004,8 hPa 0,0 l/m N-NO 0,00 h 0 W/m 7,2 km/h (2 Bft)
05.11.2011 00:00 6,7 C 97 % 1004,8 hPa 0,0 l/m N 0,00 h 0 W/m 6,4 km/h (2 Bft)
05.11.2011 01:00 6,6 C 98 % 1004,5 hPa 0,0 l/m N 0,00 h 0 W/m 4,8 km/h (1 Bft)
05.11.2011 02:00 6,4 C 98 % 1004,1 hPa 0,0 l/m NO 0,00 h 0 W/m 5,1 km/h (1 Bft)
05.11.2011 03:00 6,3 C 98 % 1003,8 hPa 0,0 l/m N-NW 0,00 h 0 W/m 10,6 km/h (2 Bft)
05.11.2011 04:00 6,3 C 98 % 1004,4 hPa 0,0 l/m N 0,00 h 0 W/m 7,6 km/h (2 Bft)
05.11.2011 05:00 6,2 C 98 % 1004,5 hPa 0,0 l/m N 0,00 h 0 W/m 5,7 km/h (1 Bft)
05.11.2011 06:00 6,3 C 98 % 1004,4 hPa 0,0 l/m N 0,00 h 0 W/m 7,2 km/h (2 Bft)
05.11.2011 07:00 6,2 C 98 % 1004,8 hPa 0,0 l/m N 0,00 h 7 W/m 6,4 km/h (2 Bft)
05.11.2011 08:00 6,1 C 98 % 1005,1 hPa 0,0 l/m N 0,00 h 18 W/m 6,9 km/h (2 Bft)
05.11.2011 09:00 6,3 C 99 % 1005,5 hPa 0,0 l/m N 0,00 h 48 W/m 7,2 km/h (2 Bft)
05.11.2011 10:00 7,2 C 98 % 1005,9 hPa 0,0 l/m N-NO 0,00 h 93 W/m 7,6 km/h (2 Bft)
05.11.2011 11:00 8,4 C 95 % 1006,0 hPa 0,0 l/m N-NO 0,00 h 119 W/m 7,9 km/h (2 Bft)
05.11.2011 12:00 9,7 C 93 % 1005,8 hPa 0,0 l/m N 0,00 h 166 W/m 7,8 km/h (2 Bft)
05.11.2011 13:00 11,8 C 87 % 1005,7 hPa 0,0 l/m N 0,58 h 276 W/m 7,8 km/h (2 Bft)
05.11.2011 14:00 13,2 C 84 % 1005,7 hPa 0,0 l/m N 0,25 h 143 W/m 8,6 km/h (2 Bft)
05.11.2011 15:00 13,0 C 85 % 1006,0 hPa 0,0 l/m N-NO 0,00 h 46 W/m 7,6 km/h (2 Bft)
05.11.2011 16:00 12,3 C 86 % 1006,2 hPa 0,0 l/m N-NO 0,00 h 11 W/m 5,2 km/h (1 Bft)
05.11.2011 17:00 11,2 C 89 % 1006,3 hPa 0,0 l/m N-NO 0,00 h 0 W/m 5,7 km/h (1 Bft)
05.11.2011 18:00 10,3 C 92 % 1006,8 hPa 0,0 l/m N-NO 0,00 h 0 W/m 6,3 km/h (2 Bft)
05.11.2011 19:00 9,7 C 94 % 1007,2 hPa 0,0 l/m N-NO 0,00 h 0 W/m 6,5 km/h (2 Bft)
05.11.2011 20:00 8,8 C 94 % 1007,2 hPa 0,0 l/m N 0,00 h 0 W/m 6,8 km/h (2 Bft)
05.11.2011 21:00 8,3 C 95 % 1007,4 hPa 0,0 l/m N 0,00 h 0 W/m 7,1 km/h (2 Bft)
05.11.2011 22:00 8,0 C 96 % 1007,5 hPa 0,0 l/m N 0,00 h 0 W/m 4,7 km/h (1 Bft)
05.11.2011 23:00 7,7 C 96 % 1007,6 hPa 0,0 l/m N 0,00 h 0 W/m 6,7 km/h (2 Bft)
06.11.2011 00:00 7,4 C 97 % 1007,6 hPa 0,0 l/m N 0,00 h 0 W/m 7,2 km/h (2 Bft)
06.11.2011 01:00 7,3 C 97 % 1007,6 hPa 0,0 l/m N 0,00 h 0 W/m 6,0 km/h (2 Bft)
06.11.2011 02:00 7,4 C 98 % 1007,5 hPa 0,0 l/m N-NO 0,00 h 0 W/m 6,7 km/h (2 Bft)
06.11.2011 03:00 7,2 C 98 % 1007,4 hPa 0,0 l/m N-NO 0,00 h 0 W/m 5,6 km/h (1 Bft)
06.11.2011 04:00 6,9 C 98 % 1007,3 hPa 0,0 l/m N-NO 0,00 h 0 W/m 6,4 km/h (2 Bft)
06.11.2011 05:00 6,8 C 98 % 1007,5 hPa 0,0 l/m N-NO 0,00 h 0 W/m 7,2 km/h (2 Bft)
06.11.2011 06:00 6,6 C 98 % 1007,9 hPa 0,0 l/m N-NO 0,00 h 0 W/m 8,2 km/h (2 Bft)
06.11.2011 07:00 6,3 C 98 % 1008,3 hPa 0,0 l/m N-NO 0,00 h 8 W/m 9,4 km/h (2 Bft)
06.11.2011 08:00 6,1 C 99 % 1008,9 hPa 0,0 l/m NO 0,00 h 25 W/m 8,6 km/h (2 Bft)
06.11.2011 09:00 6,5 C 99 % 1009,2 hPa 0,0 l/m NO 0,00 h 62 W/m 8,0 km/h (2 Bft)
06.11.2011 10:00 6,9 C 99 % 1009,6 hPa 0,0 l/m NO 0,00 h 90 W/m 7,6 km/h (2 Bft)
06.11.2011 11:00 7,5 C 98 % 1009,5 hPa 0,0 l/m N-NO 0,00 h 121 W/m 12,2 km/h (2 Bft)
06.11.2011 12:00 8,1 C 96 % 1009,2 hPa 0,0 l/m NO 0,00 h 113 W/m 9,9 km/h (2 Bft)
06.11.2011 13:00 8,4 C 95 % 1009,2 hPa 0,0 l/m NO 0,00 h 100 W/m 10,3 km/h (2 Bft)
06.11.2011 14:00 8,5 C 95 % 1009,3 hPa 0,0 l/m O-NO 0,00 h 53 W/m 10,7 km/h (2 Bft)
06.11.2011 15:00 8,0 C 96 % 1009,6 hPa 0,0 l/m NO 0,00 h 35 W/m 13,3 km/h (3 Bft)
06.11.2011 16:00 7,8 C 96 % 1010,0 hPa 0,0 l/m NO 0,00 h 10 W/m 11,9 km/h (2 Bft)
06.11.2011 17:00 7,6 C 97 % 1010,5 hPa 0,0 l/m N-NO 0,00 h 0 W/m 10,9 km/h (2 Bft)
06.11.2011 18:00 7,9 C 98 % 1010,8 hPa 0,0 l/m N 0,00 h 0 W/m 11,0 km/h (2 Bft)
06.11.2011 19:00 7,9 C 98 % 1010,7 hPa 0,0 l/m N-NO 0,00 h 0 W/m 8,1 km/h (2 Bft)
06.11.2011 20:00 7,7 C 98 % 1011,0 hPa 0,0 l/m N-NO 0,00 h 0 W/m 6,0 km/h (2 Bft)
06.11.2011 21:00 7,4 C 98 % 1011,1 hPa 0,0 l/m N-NO 0,00 h 0 W/m 5,1 km/h (1 Bft)
06.11.2011 22:00 6,9 C 98 % 1011,2 hPa 0,0 l/m N-NO 0,00 h 0 W/m 3,7 km/h (1 Bft)
06.11.2011 23:00 6,5 C 98 % 1011,0 hPa 0,0 l/m N-NO 0,00 h 0 W/m 3,6 km/h (1 Bft)
Min-Datum _ 03.11.11 05.11.11 05.11.11 - - - - 31.10.11
_ Min-Zeit 07:55 14:50 03:35 - - - - 00:20
Minimum _ 4,5 C 81 % 1003,5 hPa - - - - 0,0 km/h (0 Bft)
Max-Datum _ 05.11.11 31.10.11 31.10.11 31.10.11 - 01.11.11 02.11.11 06.11.11
_ Max-Zeit 14:45 06:35 00:25 00:20 - 12:15 11:50 15:05
Maximum _ 13,8 C 100 % 1021,4 hPa 0,2 l/m - 0,08 h 512 W/m 19,3 km/h
NO (3 Bft)
Durchschnitt _ 7,2 C 96 % 1011,6 hPa #0,8 l/m N-NO #10:25 h 108 W/m 6,2 km/h (2 Bft)